Location: Bagnara
(41.0500°N, 14.7833°E)
Time: 07:28:00
(UTC+00:00)

Meteor 2-3 Rocket - Pass Details

Date: 31 October 2021
Orbit: 842 x 885 km, 81.2° (Epoch: 30 November)

Event Time Altitude Azimuth Distance (km) Brightness Sun altitude
Rises 19:42:49 0° 339° (NNW) 3,431 7.3 -42.5°
Reaches altitude 10° 19:45:30 10° 329° (NNW) 2,497 6.6 -43.0°
Enters shadow 19:46:25 14° 323° (NW) 2,211 6.3 -43.2°
